This demonstration page uses our WeatherBlox Daily Observations layout. Learn more.

Left ArrowRight Arrow

Hourly Observations for January 6, 2018

Temp ( °F °C ) Dew Point ( °F °C ) Humidity (%) Winds ( mph kmh ) Pressure ( in mb ) Visibility ( mi km ) Precip ( " mm )
1:56 am 01:56 Mostly Clear 6 -14.4 3 -16.1 87 87 SE 6 9 30.49 1033 10 16 0.00 0.00
2:56 am 02:56 Cloudy 7 -13.9 4 -15.6 87 87 E 8 13 30.49 1033 9 14 0.00 0.00
3:56 am 03:56 Clear 6 -14.4 3 -16.1 87 87 SSE 7 11 30.49 1033 9 14 0.00 0.03
4:56 am 04:56 Clear 4 -15.6 1 -17.2 88 88 ESE 6 9 30.47 1032 9 14 0.00 0.03
5:56 am 05:56 Clear with Light Snow 3 -16.1 0 -17.8 87 87 ESE 5 7 30.46 1032 9 14 0.00 0.03
6:56 am 06:56 Clear 3 -16.1 0 -17.8 87 87 SE 6 9 30.45 1031 10 16 0.00 0.03
7:56 am 07:56 Clear 2 -16.7 -1 -18.3 88 88 SSE 6 9 30.47 1032 9 14 0.00 0.03
8:56 am 08:56 Sunny 5 -15 2 -16.7 87 87 SE 7 11 30.45 1031 10 16 0.00 0.00
9:56 am 09:56 Sunny 10 -12.2 6 -14.4 84 84 S 12 19 30.43 1031 10 16 0.00 0.00
10:56 am 10:56 Sunny 15 -9.4 9 -12.8 77 77 S 15 24 30.41 1030 10 16 0.00 0.00
11:56 am 11:56 Sunny 19 -7.2 12 -11.1 74 74 S 14 22 30.37 1028 10 16 0.00 0.00
12:56 pm 12:56 Sunny 23 -5 14 -10 68 68 S 18 30 30.28 1025 10 16 0.00 0.00
1:56 pm 13:56 Sunny 25 -3.9 15 -9.4 66 66 S 15 24 30.23 1024 10 16 0.00 0.00
2:56 pm 14:56 Sunny 27 -2.8 16 -8.9 63 63 S 20 31 30.18 1022 10 16 0.00 0.00
3:56 pm 15:56 Sunny 26 -3.3 17 -8.3 69 69 S 13 20 30.18 1022 10 16 0.00 0.00
5:56 pm 17:56 Clear 25 -3.9 17 -8.3 72 72 S 10 17 30.15 1021 10 16 0.00 0.00
6:56 pm 18:56 Clear 25 -3.9 16 -8.9 69 69 S 14 22 30.12 1020 10 16 0.00 0.00
7:56 pm 19:56 Clear 23 -5 16 -8.9 74 74 S 10 17 30.10 1019 10 16 0.00 0.00
8:56 pm 20:56 Clear 23 -5 16 -8.9 74 74 S 14 22 30.08 1019 10 16 0.00 0.00
9:56 pm 21:56 Clear 25 -3.9 17 -8.3 72 72 S 16 26 30.04 1017 10 16 0.00 0.00
10:56 pm 22:56 Clear 26 -3.3 18 -7.8 71 71 S 13 20 30.02 1017 10 16 0.00 0.00
11:56 pm 23:56 Clear 25 -3.9 18 -7.8 75 75 S 10 17 29.99 1016 10 16 0.00 0.00

Powered by AerisWeather